{"data":{"norad_id":39484,"intl_designator":"2013-076B","name":"COSMOS 2489 (RODNIK-S 8)","alt_names":[],"object_type":"PAYLOAD","status":"ACTIVE","operator":null,"country":"CIS","launch_date":"2013-12-25","launch_site_code":"PLMSC","launch_vehicle":null,"mission":null,"orbit_class":"UNKNOWN","rcs_meters":1.7028,"size_class":null,"mass_kg":null,"dimensions":null,"purposes":[],"wikipedia_slug":null,"has_3d_model":false,"image_url":null,"decayed_at":null,"tle_current":{"epoch":"2026-05-25T03:38:26.277792Z","epoch_age_seconds":68727,"freshness":"FRESH","line1":"1 39484U 13076B   26145.15169303  .00000000  00000+0 -69035-4 0  9998","line2":"2 39484  82.4882 184.4183 0022241 143.2268 217.0342 12.42879281563083","mean_motion":12.42879281,"eccentricity":0.0022241,"inclination_deg":82.4882,"raan_deg":184.4183,"arg_perigee_deg":143.2268,"mean_anomaly_deg":217.0342,"bstar":-6.9035e-5,"rev_number":56308,"period_min":115.86000523248,"perigee_km":1476.9117676718,"apogee_km":1511.9304807199,"semimajor_km":7872.5581241958,"source":"CELESTRAK","updated_at":"2026-05-25T13:37:55.407845Z"}}}